• In United Kingdom
  • List of Countries
  • For 7 days
  • Water Temperature
  • Satellite Maps
  • Weather Map
  • Weather Widgets
  • user-avatar
    Login

    Hourly Weather Vanadzor

    Today, 23 May, Wednesday

    Time Temperature Precipitation Wind Pressure Humidity
    00:00 +12°C° 0.2 mm 1 mps 639 mmHg 95%
    01:00 +12°C° 0.1 mm 1 mps 639 mmHg 94%
    02:00 +12°C° 0.1 mm 1 mps 639 mmHg 94%
    03:00 +11°C° 0.1 mm 1 mps 639 mmHg 94%
    04:00 +11°C° 0.1 mm 1 mps 639 mmHg 93%
    05:00 +12°C° 0.1 mm 1 mps 639 mmHg 92%
    06:00 +12°C° 0.1 mm 1 mps 639 mmHg 90%
    07:00 +13°C° 0.1 mm 2 mps 640 mmHg 85%
    08:00 +14°C° 0.1 mm 2 mps 640 mmHg 79%
    09:00 +16°C° 0.1 mm 2 mps 640 mmHg 73%
    10:00 +17°C° 0.1 mm 2 mps 640 mmHg 70%
    11:00 +17°C° 0.1 mm 2 mps 640 mmHg 68%
    12:00 +18°C° 0.1 mm 3 mps 640 mmHg 65%
    13:00 +18°C° 0.3 mm 3 mps 640 mmHg 65%
    14:00 +19°C° 0.3 mm 3 mps 640 mmHg 65%
    15:00 +19°C° 0.3 mm 3 mps 639 mmHg 65%
    16:00 +18°C° 0.3 mm 3 mps 639 mmHg 68%
    17:00 +18°C° 0.3 mm 3 mps 639 mmHg 71%
    18:00 +17°C° 0.3 mm 2 mps 639 mmHg 74%
    19:00 +15°C° 0.2 mm 2 mps 638 mmHg 77%
    20:00 +14°C° 0.2 mm 2 mps 638 mmHg 80%
    21:00 +12°C° 0.2 mm 2 mps 638 mmHg 83%
    22:00 +12°C° 0 mm 2 mps 638 mmHg 82%
    23:00 +10°C° 0 mm 2 mps 638 mmHg 81%

    Tomorrow, 24 May, Thursday

    Time Temperature Precipitation Wind Pressure Humidity
    00:00 +10°C° 0 mm 2 mps 638 mmHg 80%
    01:00 +10°C° 0.1 mm 2 mps 638 mmHg 79%
    02:00 +9°C° 0.1 mm 2 mps 637 mmHg 78%
    03:00 +9°C° 0.1 mm 2 mps 637 mmHg 76%
    04:00 +9°C° 0 mm 2 mps 637 mmHg 75%
    05:00 +10°C° 0 mm 2 mps 637 mmHg 75%
    06:00 +12°C° 0 mm 1 mps 637 mmHg 74%
    07:00 +13°C° 0 mm 2 mps 638 mmHg 67%
    08:00 +15°C° 0 mm 2 mps 638 mmHg 60%
    09:00 +17°C° 0 mm 2 mps 638 mmHg 53%
    10:00 +18°C° 0 mm 2 mps 638 mmHg 52%
    11:00 +19°C° 0 mm 2 mps 638 mmHg 50%
    12:00 +20°C° 0 mm 3 mps 638 mmHg 48%
    13:00 +20°C° 0 mm 3 mps 638 mmHg 49%
    14:00 +20°C° 0 mm 3 mps 637 mmHg 50%
    15:00 +20°C° 0 mm 3 mps 637 mmHg 51%
    16:00 +19°C° 0.1 mm 3 mps 637 mmHg 56%
    17:00 +18°C° 0.1 mm 2 mps 636 mmHg 60%
    18:00 +17°C° 0.1 mm 2 mps 636 mmHg 65%
    19:00 +16°C° 0 mm 2 mps 635 mmHg 68%
    20:00 +14°C° 0 mm 2 mps 635 mmHg 71%
    21:00 +12°C° 0 mm 2 mps 635 mmHg 74%
    22:00 +12°C° 0 mm 2 mps 635 mmHg 74%
    23:00 +10°C° 0 mm 2 mps 635 mmHg 73%

    Day after tomorrow, 25 May, Friday

    Time Temperature Precipitation Wind Pressure Humidity
    00:00 +10°C° 0 mm 2 mps 634 mmHg 73%
    01:00 +10°C° 0 mm 2 mps 634 mmHg 73%
    02:00 +10°C° 0 mm 1 mps 634 mmHg 73%
    03:00 +10°C° 0 mm 1 mps 634 mmHg 73%
    04:00 +11°C° 0 mm 1 mps 634 mmHg 73%
    05:00 +12°C° 0 mm 1 mps 634 mmHg 73%
    06:00 +13°C° 0 mm 1 mps 634 mmHg 73%
    07:00 +15°C° 0 mm 1 mps 635 mmHg 67%
    08:00 +18°C° 0 mm 1 mps 635 mmHg 61%
    09:00 +20°C° 0 mm 1 mps 636 mmHg 55%
    10:00 +19°C° 0.2 mm 2 mps 636 mmHg 54%
    11:00 +20°C° 0.2 mm 2 mps 635 mmHg 54%
    12:00 +21°C° 0.2 mm 2 mps 635 mmHg 54%
    13:00 +21°C° 0.8 mm 2 mps 635 mmHg 55%
    14:00 +21°C° 0.8 mm 2 mps 635 mmHg 56%
    15:00 +21°C° 0.8 mm 2 mps 635 mmHg 57%
    16:00 +20°C° 0.8 mm 2 mps 634 mmHg 61%
    17:00 +20°C° 0.8 mm 1 mps 634 mmHg 66%
    18:00 +20°C° 0.8 mm 1 mps 634 mmHg 71%
    19:00 +18°C° 0.4 mm 1 mps 634 mmHg 73%
    20:00 +16°C° 0.4 mm 1 mps 634 mmHg 76%
    21:00 +14°C° 0.4 mm 1 mps 633 mmHg 78%
    22:00 +14°C° 0.2 mm 1 mps 633 mmHg 79%
    23:00 +14°C° 0.2 mm 1 mps 633 mmHg 80%

    26 May, Saturday

    Time Temperature Precipitation Wind Pressure Humidity
    00:00 +13°C° 0.2 mm 1 mps 633 mmHg 81%
    01:00 +13°C° 0.1 mm 1 mps 633 mmHg 81%
    02:00 +13°C° 0.1 mm 1 mps 633 mmHg 82%
    03:00 +13°C° 0.1 mm 1 mps 633 mmHg 82%
    04:00 +13°C° 0.1 mm 1 mps 634 mmHg 81%
    05:00 +14°C° 0.1 mm 1 mps 634 mmHg 80%
    06:00 +14°C° 0.1 mm 1 mps 634 mmHg 80%
    07:00 +16°C° 0.1 mm 1 mps 635 mmHg 74%
    08:00 +19°C° 0.1 mm 1 mps 635 mmHg 68%
    09:00 +20°C° 0.1 mm 1 mps 635 mmHg 62%
    10:00 +21°C° 0.6 mm 1 mps 635 mmHg 60%
    11:00 +21°C° 0.6 mm 2 mps 635 mmHg 58%
    12:00 +23°C° 0.6 mm 2 mps 635 mmHg 56%
    13:00 +21°C° 1.8 mm 2 mps 635 mmHg 59%
    14:00 +21°C° 1.8 mm 2 mps 635 mmHg 61%
    15:00 +21°C° 1.8 mm 2 mps 635 mmHg 63%
    16:00 +19°C° 2.1 mm 2 mps 634 mmHg 70%
    17:00 +18°C° 2.1 mm 2 mps 634 mmHg 78%
    18:00 +16°C° 2.1 mm 2 mps 634 mmHg 85%
    19:00 +16°C° 0.8 mm 2 mps 634 mmHg 86%
    20:00 +15°C° 0.8 mm 2 mps 635 mmHg 86%
    21:00 +14°C° 0.8 mm 2 mps 635 mmHg 87%
    22:00 +14°C° 0.4 mm 1 mps 635 mmHg 87%
    23:00 +13°C° 0.4 mm 1 mps 635 mmHg 87%

    27 May, Sunday

    Time Temperature Precipitation Wind Pressure Humidity
    00:00 +13°C° 0.4 mm 1 mps 635 mmHg 87%
    01:00 +13°C° 0.3 mm 1 mps 636 mmHg 88%
    02:00 +12°C° 0.3 mm 1 mps 636 mmHg 89%
    03:00 +12°C° 0.3 mm 1 mps 636 mmHg 90%
    04:00 +12°C° 0.1 mm 1 mps 636 mmHg 90%
    05:00 +13°C° 0.1 mm 1 mps 637 mmHg 91%
    06:00 +13°C° 0.1 mm 1 mps 637 mmHg 92%
    07:00 +14°C° 0 mm 2 mps 638 mmHg 88%
    08:00 +15°C° 0 mm 2 mps 639 mmHg 84%
    09:00 +16°C° 0 mm 2 mps 639 mmHg 81%
    10:00 +16°C° 0 mm 2 mps 639 mmHg 80%
    11:00 +16°C° 0 mm 2 mps 639 mmHg 78%
    12:00 +17°C° 0 mm 3 mps 639 mmHg 77%
    13:00 +16°C° 0.1 mm 3 mps 639 mmHg 78%
    14:00 +16°C° 0.1 mm 3 mps 639 mmHg 78%
    15:00 +16°C° 0.1 mm 3 mps 639 mmHg 78%
    16:00 +14°C° 0.1 mm 3 mps 639 mmHg 81%
    17:00 +14°C° 0.1 mm 3 mps 639 mmHg 83%
    18:00 +13°C° 0.1 mm 3 mps 639 mmHg 86%
    19:00 +13°C° 0 mm 2 mps 639 mmHg 88%
    20:00 +12°C° 0 mm 2 mps 640 mmHg 91%
    21:00 +10°C° 0 mm 2 mps 640 mmHg 93%
    22:00 +10°C° 0 mm 2 mps 640 mmHg 93%
    23:00 +10°C° 0 mm 2 mps 640 mmHg 94%

    28 May, Monday

    Time Temperature Precipitation Wind Pressure Humidity
    00:00 +11°C° 0 mm 1 mps 640 mmHg 94%
    01:00 +10°C° 0 mm 1 mps 640 mmHg 94%
    02:00 +10°C° 0 mm 1 mps 639 mmHg 94%
    03:00 +10°C° 0 mm 1 mps 639 mmHg 94%
    04:00 +11°C° 0 mm 1 mps 639 mmHg 90%
    05:00 +12°C° 0 mm 1 mps 640 mmHg 87%
    06:00 +12°C° 0 mm 1 mps 640 mmHg 83%
    07:00 +15°C° 0 mm 1 mps 640 mmHg 76%
    08:00 +18°C° 0 mm 1 mps 640 mmHg 68%
    09:00 +19°C° 0 mm 2 mps 641 mmHg 61%
    10:00 +20°C° 0 mm 2 mps 641 mmHg 58%
    11:00 +23°C° 0 mm 2 mps 641 mmHg 56%
    12:00 +24°C° 0 mm 2 mps 641 mmHg 53%
    13:00 +24°C° 0.1 mm 2 mps 640 mmHg 54%
    14:00 +24°C° 0.1 mm 2 mps 640 mmHg 54%
    15:00 +24°C° 0.1 mm 2 mps 640 mmHg 54%
    16:00 +23°C° 0.7 mm 2 mps 640 mmHg 60%
    17:00 +23°C° 0.7 mm 2 mps 639 mmHg 67%
    18:00 +22°C° 0.7 mm 1 mps 639 mmHg 73%
    19:00 +20°C° 0.6 mm 1 mps 639 mmHg 77%
    20:00 +18°C° 0.6 mm 1 mps 639 mmHg 82%
    21:00 +15°C° 0.6 mm 1 mps 639 mmHg 87%
    22:00 +15°C° 0.6 mm 1 mps 639 mmHg 89%
    23:00 +14°C° 0.6 mm 2 mps 639 mmHg 91%
    Show more